This is the latest recevied weather packets stored in our database for station/object KD4EG. If no packets are shown the sender has not sent any weather packets the latest 10 day(s).
| Time | Temp. | Humidity | Pressure | Rain* | Wind** | Luminosity | Snow |
|---|---|---|---|---|---|---|---|
| 1777950423 | 17.78° C | 58% | 1015.3 hPa | 0 mm | - | 0 W/m² | - |
| 1777950119 | 17.78° C | 58% | 1014.8 hPa | 0 mm | - | 0 W/m² | - |
| 1777949815 | 17.78° C | 59% | 1014.9 hPa | 0 mm | - | 0 W/m² | - |
| 1777949514 | 17.22° C | 61% | 1015.1 hPa | 0 mm | - | 0 W/m² | - |
| 1777949211 | 16.67° C | 64% | 1014.9 hPa | 0 mm | - | 0 W/m² | - |
| 1777948908 | 16.67° C | 65% | 1015.1 hPa | 0 mm | - | 0 W/m² | - |
| 1777948606 | 16.11° C | 66% | 1015 hPa | 0 mm | - | 0 W/m² | - |
| 1777948303 | 16.67° C | 66% | 1015.2 hPa | 0 mm | - | 0 W/m² | - |
| 1777948000 | 16.11° C | 66% | 1015.1 hPa | 0 mm | - | 0 W/m² | - |
| 1777947697 | 16.11° C | 66% | 1015 hPa | 0 mm | - | 0 W/m² | - |
| 1777947394 | 16.11° C | 67% | 1015.3 hPa | 0 mm | - | 0 W/m² | - |
| 1777947091 | 16.11° C | 67% | 1015 hPa | 0 mm | - | 0 W/m² | - |
| 1777946786 | 16.11° C | 67% | 1015.1 hPa | 0 mm | - | 0 W/m² | - |
| 1777946483 | 16.11° C | 67% | 1015.1 hPa | 0 mm | - | 0 W/m² | - |
| 1777946180 | 16.11° C | 68% | 1015 hPa | 0 mm | - | 0 W/m² | - |
| 1777945876 | 16.67° C | 67% | 1015.2 hPa | 0 mm | - | 0 W/m² | - |
| 1777945573 | 16.67° C | 67% | 1015 hPa | 0 mm | - | 0 W/m² | - |
| 1777945270 | 16.67° C | 66% | 1015 hPa | 0 mm | - | 0 W/m² | - |
| 1777944968 | 16.67° C | 66% | 1015.1 hPa | 0 mm | - | 0 W/m² | - |
| 1777944665 | 16.67° C | 66% | 1014.8 hPa | 0 mm | - | 0 W/m² | - |
| 1777944363 | 17.22° C | 65% | 1014.8 hPa | 0 mm | - | 0 W/m² | - |
| 1777944059 | 17.22° C | 63% | 1014.9 hPa | 0 mm | - | 0 W/m² | - |
| 1777943755 | 17.78° C | 63% | 1014.6 hPa | 0 mm | - | 0 W/m² | - |
| 1777943453 | 17.78° C | 63% | 1014.5 hPa | 0 mm | - | 0 W/m² | - |
| 1777943148 | 17.78° C | 63% | 1014.4 hPa | 0 mm | - | 0 W/m² | - |
* Rain latest hour (hover to see other rain measurements)
** Current wind speed in m/s (hover to see current wind gust speed)